Location: Dagbreek
(34.1358°S, 18.3836°E)
Time: 06:29:57
(UTC+00:00)

Daily predictions for brighter satellites

Satellite Brightness Start Highest point End
(mag) Time Altitude Azimuth Time Altitude Azimuth Time Altitude Azimuth
PAYLOAD B 4.3 16:31:38 10° SSE 16:37:19 79° ENE 16:42:55 10° N
BREEZE-M DEB (TANK) 1.5 16:36:50 10° SW 16:38:59 63° SE 16:42:38 10° ENE
H-2A R/B 2.8 16:35:52 10° S 16:39:39 83° W 16:43:24 10° NNW
Cosmos 1743 Rocket 3.9 16:36:15 10° S 16:40:31 45° E 16:44:46 10° NNE
Cosmos 1420 Rocket 4.1 16:35:26 10° NNW 16:40:41 88° ENE 16:45:59 10° SSE
Cosmos 676 Rocket 4.3 16:36:11 10° S 16:41:16 46° ESE 16:46:20 10° NE
NOAA 6 4.2 16:37:50 10° SSE 16:43:06 88° WSW 16:48:17 10° NNW
Cosmos 371 Rocket 3.5 16:38:16 10° NNW 16:43:07 77° WSW 16:48:02 10° SSE
YAOGAN 6 2.9 16:39:47 10° SSE 16:43:25 47° E 16:47:01 10° N
OAO 3 Copernicus 4.4 16:39:03 10° W 16:44:10 81° S 16:49:19 10° E
Milstar 3 Cent rocket 3.0 16:41:21 10° WNW 16:48:47 51° N 16:53:31 10° ENE
USA 267 4.2 16:42:29 10° NNE 16:48:49 52° NW 16:55:15 10° SW
Nadezhda 3 Rocket 4.5 16:48:26 10° NNE 16:54:01 37° E 16:59:41 10° SSE
RESURS DK-1 3.3 16:50:36 10° NW 16:54:39 50° WSW 16:58:44 10° S
CZ-2C R/B 3.7 16:51:19 10° ENE 16:55:42 25° ESE 17:00:10 10° SSE
Cosmos 1500 Rocket 3.5 16:52:57 10° S 16:57:22 70° E 17:01:42 10° NNE
CENTAUR R/B 3.5 16:54:47 10° SW 16:59:53 42° WNW 17:04:42 10° N
Hubble Space Telescope 3.2 16:58:34 10° WNW 17:01:22 17° NNW 17:04:08 10° NNE
Cosmos 2221 3.8 16:59:08 10° NNW 17:03:17 45° W 17:07:31 10° S
Cosmos 2369 Rocket 2.2 17:00:39 10° NNW 17:06:21 74° ENE 17:12:06 10° SSE
Aureole 1 Rocket 3.1 17:04:44 10° SSW 17:08:36 86° WNW 17:13:36 10° NNE
Cosmos 1821 Rocket 4.4 17:03:39 10° SSE 17:09:16 36° ESE 17:14:49 10° NE
Cosmos 1954 Rocket 4.0 17:04:14 10° SSW 17:09:34 86° ESE 17:14:52 10° NNE
Cosmos 1110 Rocket 4.5 17:04:45 10° NNE 17:09:34 38° E 17:14:23 10° SE
Cosmos 1943 Rocket 2.6 17:05:53 10° NNW 17:11:21 65° WSW 17:16:52 10° SSE
Cosmos 1939 Rocket 3.9 17:10:40 10° SE 17:13:53 24° E 17:17:04 10° NNE
Cosmos 2366 rocket 4.3 17:09:21 10° S 17:15:46 76° W 17:22:04 10° N
Cosmos 1805 Rocket 3.5 17:17:14 10° S 17:21:38 61° E 17:25:59 10° NNE
Cosmos 1933 4.3 17:18:26 10° NNE 17:21:52 27° E 17:23:33 20° SE
ASTRO E2 3.2 17:18:33 10° WNW 17:22:27 48° N 17:24:35 24° ENE
OAO 2 Rocket 4.4 17:19:10 10° W 17:23:51 40° NNW 17:28:37 10° NE
Cosmos 2263 4.1 17:19:05 10° NNW 17:24:47 75° ENE 17:30:28 10° SSE
FengYun 1-2 T 4.2 17:21:35 10° SSE 17:27:12 69° ENE 17:32:43 10° N
H-2A R/B 3.3 17:22:51 10° WNW 17:27:25 76° NNE 17:41:00 21° E
Cosmos 304 Rocket 4.4 17:23:08 10° NNW 17:27:50 57° WSW 17:32:36 10° S
Okean-O 3.3 17:24:33 12° SE 17:28:07 32° E 17:32:06 10° NNE
GPS 2-04 Rocket1 2.5 17:25:02 10° WNW 17:28:59 83° NNE 17:30:35 33° E
Cosmos 1862 3.3 17:25:41 10° S 17:29:46 84° W 17:33:49 10° N
BREEZE-M R/B 3.0 17:25:17 10° WNW 17:30:25 63° SW 17:32:08 25° SE
Helios 1A Rocket 2.9 17:26:33 10° SSE 17:30:38 56° E 17:34:39 10° N
Okean O Rocket 3.3 17:28:33 10° S 17:32:33 35° WSW 17:36:31 10° NW
SMAP 4.1 17:28:11 10° S 17:32:43 47° WSW 17:37:11 10° NNW
DELTA 2 R/B (1) 4.1 17:28:52 10° W 17:34:17 50° S 17:37:19 25° ESE
Cosmos 1441 Rocket 4.0 17:33:48 10° SSW 17:37:44 56° W 17:41:33 10° N
Cosmos 1633 Rocket 3.7 17:33:45 10° SSE 17:37:51 34° E 17:38:05 34° E
CZ-2D R/B 3.8 17:39:36 37° ENE 17:39:36 37° ENE 17:42:49 10° NNE
Aureole 2 4.0 17:36:55 10° SSW 17:40:07 84° WNW 17:42:07 19° NNE
CZ-2C R/B 4.3 17:43:05 34° ESE 17:43:05 34° ESE 17:46:43 10° S
Cosmos 1328 Rocket 3.7 17:39:07 10° NNE 17:43:23 47° E 17:46:08 21° SSE
Cosmos 1606 2.5 17:41:19 10° N 17:45:06 84° E 17:48:57 10° S
MOS 1 Rocket 4.0 17:46:53 10° N 17:51:32 53° W 17:55:59 10° SSW
Cosmos 1331 Rocket 3.9 17:48:22 10° NNW 17:53:32 87° WSW 17:58:46 10° SSE
Iridium 2 3.6 17:52:26 10° N 17:56:14 89° W 18:00:05 10° S
DMSP B5D2-2 4.0 17:51:16 10° NNE 17:56:34 86° ESE 18:01:57 10° SSW
CZ-4C R/B 3.8 17:48:44 10° NW 17:56:45 51° SW 18:03:52 10° SSE
Lacrosse 4 Rocket 1.5 17:55:41 10° SSW 18:00:11 62° ESE 18:00:11 62° ESE
YAOGAN 1 3.9 18:02:48 26° NNE 18:02:48 26° NNE 18:04:52 10° N
Abrixas rocket 3.7 17:59:17 10° NW 18:00:51 29° NW 18:00:51 29° NW
Cosmos 1151 Rocket 2.9 17:58:02 10° N 18:02:24 89° ENE 18:06:15 14° S
SEDSat Delta rocket 3.1 18:04:07 10° WNW 18:07:55 58° NNW 18:07:55 58° NNW
Sich 1 4.0 18:04:21 10° SSW 18:08:37 49° W 18:12:53 10° NNW
SL-27 R/B 4.1 18:07:06 10° SSW 18:08:49 26° SSW 18:08:49 26° SSW
Cosmos 1833 4.4 18:05:32 10° S 18:10:28 48° SE 18:10:28 48° SE
Cosmos 292 Rocket 4.1 18:07:29 10° N 18:11:12 50° NNE 18:11:12 50° NNE
CZ-4 R/B 2.8 18:19:59 28° NNW 18:19:59 28° NNW 18:21:55 10° NNW
Meteor 1-25 Rocket 4.3 18:14:20 10° S 18:19:11 59° SE 18:19:11 59° SE
ATLAS 3B R/B 4.1 18:14:02 10° SW 18:20:27 38° WNW 18:26:36 10° N
Cosmos 1934 Rocket 4.0 18:21:57 10° S 18:28:16 84° W 18:34:36 10° N
OAO 3 Copernicus 4.5 18:23:41 10° W 18:28:17 71° WNW 18:28:17 71° WNW
Cosmos 1339 Rocket 4.4 18:28:28 10° N 18:34:36 82° W 18:40:46 10° S
CZ-2C R/B 4.1 18:30:39 10° NNW 18:35:41 38° W 18:40:52 10° SSW
BREEZE-M DEB (TANK) 4.0 18:15:35 10° NW 18:38:23 73° NE 18:39:18 66° E
Cosmos 839 Rocket 4.0 18:34:12 10° SSW 18:40:15 70° S 18:40:15 70° S
Milstar 3 4.5 19:35:56 10° NW 19:43:34 52° NNW 19:43:34 52° NNW
